Weather History for KAGC - August, 2013

Change the Weather History Date:

Friday, August 30, 2013

  Actual Average Record
Temperature  
Mean Temperature 74 °F -  
Max Temperature 86 °F 79 °F 93 °F (1991)
Min Temperature 64 °F 58 °F 51 °F (1992)
Cooling Degree Days 9    
Growing Degree Days 24 (Base 50)    
Moisture  
Dew Point 67 °F    
Average Humidity 84    
Maximum Humidity 100    
Minimum Humidity 55    
Precipitation  
Precipitation 0.00 in - - ()
Sea Level Pressure  
Sea Level Pressure 29.98 in    
Wind  
Wind Speed 4 mph (South)    
Max Wind Speed 12 mph    
Max Gust Speed 17 mph    
Visibility 5 miles    
Events Fog    
Averages and records for this station are not official NWS values.
T = Trace of Precipitation, MM = Missing Value Source: NWS Daily Summary

Daily Weather History Graph

Daily Weather History Graph

Search for Another Location

Airport or City:

Trip Planner

Search our weather history database for the weather conditions in past years. The results will help you decide how hot, cold, wet, or windy it might be!

Date:

Astronomy

Aug. 30, 2013 Rise Set
Actual Time 6:45 AM EDT 7:54 PM EDT
Civil Twilight 6:17 AM EDT 8:22 PM EDT
Nautical Twilight 5:43 AM EDT 8:55 PM EDT
Astronomical Twilight 5:08 AM EDT 9:30 PM EDT
Moon 1:22 AM EDT (8/30) 4:09 PM EDT (8/30)
Length of Visible Light 14h 04m
Length of Day
13h 08m
Waning Crescent, 29% of the Moon is Illuminated
Aug 30
Waning Crescent
Sep 5
New
Sep 12
First Quarter
Sep 19
Full
Sep 26
Last Quarter

Hourly Weather History & Observations

Time (EDT) Temp. Heat Index Dew Point Humidity Pressure Visibility Wind Dir Wind Speed Gust Speed Precip Events Conditions
12:53 AM 73.9 °F - 66.9 °F 79% 30.02 in 8.0 mi Calm Calm - N/A   Clear
1:53 AM 71.1 °F - 66.0 °F 84% 30.01 in 5.0 mi Calm Calm - N/A   Haze
2:53 AM 68.0 °F - 66.0 °F 93% 30.01 in 3.0 mi SE 4.6 mph - N/A   Clear
3:00 AM 68.0 °F - 66.2 °F 94% 30.02 in 1.8 mi SSE 4.6 mph - N/A   Clear
3:41 AM 66.2 °F - 66.2 °F 100% 30.01 in 0.2 mi SSE 4.6 mph - N/A Fog Fog
3:50 AM 66.2 °F - 66.2 °F 100% 30.02 in 0.2 mi South 4.6 mph - N/A Fog Fog
3:53 AM 66.9 °F - 66.0 °F 97% 30.00 in 0.2 mi South 4.6 mph - N/A Fog Fog
4:00 AM 66.2 °F - 66.2 °F 100% 30.02 in 3.0 mi South 4.6 mph - N/A   Clear
4:50 AM 68.0 °F - 66.2 °F 94% 30.02 in 1.0 mi Calm Calm - N/A   Clear
4:53 AM 68.0 °F - 66.9 °F 96% 30.01 in 1.0 mi Calm Calm - N/A   Clear
5:26 AM 66.2 °F - 66.2 °F 100% 30.02 in 0.5 mi Calm Calm - N/A   Clear
5:53 AM 66.9 °F - 66.0 °F 97% 30.01 in 1.0 mi Calm Calm - N/A   Clear
6:05 AM 66.2 °F - 66.2 °F 100% 30.02 in 0.5 mi SSE 3.5 mph - N/A   Mist
6:12 AM 66.2 °F - 64.4 °F 94% 30.02 in 0.2 mi SSE 4.6 mph - N/A   Mist
6:31 AM 64.4 °F - 64.4 °F 100% 30.02 in 0.2 mi SSE 5.8 mph - N/A   Mist
6:53 AM 64.0 °F - 64.0 °F 100% 30.01 in 0.2 mi SSE 5.8 mph - N/A Fog Fog
7:53 AM 64.9 °F - 64.9 °F 100% 30.02 in 0.2 mi SSE 5.8 mph - N/A Fog Fog
8:04 AM 66.2 °F - 66.2 °F 100% 30.03 in 0.2 mi SSE 8.1 mph - N/A Fog Fog
8:19 AM 66.2 °F - 66.2 °F 100% 30.03 in 1.0 mi SSE 6.9 mph - N/A   Clear
8:48 AM 68.0 °F - 66.2 °F 94% 30.03 in 2.5 mi SSE 5.8 mph - N/A   Clear
8:53 AM 68.0 °F - 66.9 °F 96% 30.02 in 7.0 mi South 8.1 mph - N/A   Clear
9:53 AM 73.9 °F - 66.9 °F 79% 30.02 in 10.0 mi SSW 8.1 mph - N/A   Clear
10:53 AM 78.1 °F - 68.0 °F 71% 30.01 in 10.0 mi SSW 8.1 mph - N/A   Clear
11:53 AM 80.1 °F 82.7 °F 68.0 °F 67% 29.99 in 10.0 mi SSW 11.5 mph - N/A   Clear
12:53 PM 82.0 °F 85.5 °F 69.1 °F 65% 29.97 in 10.0 mi SSW 6.9 mph - N/A   Mostly Cloudy
1:53 PM 82.9 °F 86.5 °F 69.1 °F 63% 29.95 in 10.0 mi Variable 5.8 mph 17.3 mph N/A   Mostly Cloudy
2:53 PM 84.9 °F 88.2 °F 68.0 °F 57% 29.94 in 10.0 mi South 11.5 mph 17.3 mph N/A   Mostly Cloudy
3:53 PM 84.0 °F 86.3 °F 66.0 °F 55% 29.92 in 10.0 mi SW 11.5 mph - N/A   Partly Cloudy
4:53 PM 84.0 °F 86.3 °F 66.0 °F 55% 29.90 in 10.0 mi SW 11.5 mph - N/A   Partly Cloudy
5:53 PM 82.9 °F 85.8 °F 68.0 °F 60% 29.88 in 10.0 mi South 8.1 mph - N/A   Partly Cloudy
6:53 PM 82.0 °F 84.9 °F 68.0 °F 62% 29.86 in 10.0 mi SSW 11.5 mph - N/A   Clear
7:53 PM 79.0 °F - 68.0 °F 69% 29.86 in 10.0 mi SSW 5.8 mph - N/A   Clear
8:53 PM 79.0 °F - 68.0 °F 69% 29.89 in 10.0 mi SSW 6.9 mph - N/A   Partly Cloudy
9:53 PM 77.0 °F - 69.1 °F 76% 29.88 in 10.0 mi SSW 8.1 mph - N/A   Clear
10:53 PM 75.9 °F - 69.1 °F 79% 29.87 in 10.0 mi South 6.9 mph - N/A   Clear
11:53 PM 73.9 °F - 69.1 °F 85% 29.86 in 10.0 mi SSW 6.9 mph - N/A   Clear